sat.trackr.live / text

‹ back to catalog

STARLINK-32751

NORAD 62753 · 2025-014U

PAYLOAD ACTIVE UNKNOWN

§ Identity

Operator
Country
US
Launch date
2025-01-21
Launch site
AFETR
Launch vehicle
Mass (kg)
RCS (m²)

Purposes: comms

External: N2YO · Heavens-Above · Gunter

§ Orbital elements

Epoch: 2026-09-21T01:31:54.016032Z

Period
94.27 min
Inclination
42.9997°
Eccentricity
0.0001443
Mean motion
15.27581898 rev/d
Perigee alt
482.1 km
Apogee alt
484.0 km
Semi-major
6,861.2 km
B*
5.1128e-4
RAAN
131.3331°
Arg perigee
269.5216°
Mean anomaly
90.5470°
Rev number
9,313

§ Raw data

STARLINK-327511 62753U 25014U   26264.06381963  .00013834  00000+0  51128-3 0  99992 62753  42.9997 131.3331 0001443 269.5216  90.5470 15.27581898 93138

JSON: /api/v1/satellites/62753 · /tle

For live sub-satellite position, see the globe view (requires WebGL).

§ Visibility from observer

Set your observer location to see the next 7 days of passes ≥ 10°. The values pass through the URL so the page stays shareable.

No JS? Fill the form by hand. The geolocation button needs JavaScript.